Year,Month,Day,Hour,Minute,Value (Times are PST for windspeed in km/hr)
2017,09,30,00,00,2.70
2017,09,30,00,01,3.20
2017,09,30,00,02,1.90
2017,09,30,00,03,2.50
2017,09,30,00,04,0.70
2017,09,30,00,05,1.90
2017,09,30,00,06,1.50
2017,09,30,00,07,0.60
2017,09,30,00,08,1.20
2017,09,30,00,09,0.40
2017,09,30,00,10,1.20
2017,09,30,00,11,2.40
2017,09,30,00,12,1.30
2017,09,30,00,13,0.00
2017,09,30,00,14,0.30
2017,09,30,00,15,0.10
2017,09,30,00,16,0.00
2017,09,30,00,17,0.00
2017,09,30,00,18,0.70
2017,09,30,00,19,1.20
2017,09,30,00,20,1.20
2017,09,30,00,21,0.80
2017,09,30,00,22,0.00
2017,09,30,00,23,0.00
2017,09,30,00,24,0.80
2017,09,30,00,25,0.30
2017,09,30,00,26,0.00
2017,09,30,00,27,0.10
2017,09,30,00,28,1.50
2017,09,30,00,29,1.30
2017,09,30,00,30,0.00
2017,09,30,00,31,0.00
2017,09,30,00,32,0.00
2017,09,30,00,33,0.00
2017,09,30,00,34,0.00
2017,09,30,00,35,0.00
2017,09,30,00,36,0.00
2017,09,30,00,37,0.00
2017,09,30,00,38,0.00
2017,09,30,00,39,0.00
2017,09,30,00,40,0.00
2017,09,30,00,41,0.00
2017,09,30,00,42,0.00
2017,09,30,00,43,0.00
2017,09,30,00,44,0.00
2017,09,30,00,45,0.00
2017,09,30,00,46,0.00
2017,09,30,00,47,0.00
2017,09,30,00,48,0.00
2017,09,30,00,49,2.60
2017,09,30,00,50,3.60
2017,09,30,00,51,1.90
2017,09,30,00,52,1.20
2017,09,30,00,53,2.40
2017,09,30,00,54,2.90
2017,09,30,00,55,3.10
2017,09,30,00,56,2.70
2017,09,30,00,57,2.30
2017,09,30,00,58,1.80
2017,09,30,00,59,2.00
2017,09,30,01,00,1.90
2017,09,30,01,01,1.90
2017,09,30,01,02,2.10
2017,09,30,01,03,1.90
2017,09,30,01,04,2.40
2017,09,30,01,05,3.10
2017,09,30,01,06,2.60
2017,09,30,01,07,2.30
2017,09,30,01,08,3.10
2017,09,30,01,09,3.00
2017,09,30,01,10,2.80
2017,09,30,01,11,2.50
2017,09,30,01,12,1.80
2017,09,30,01,13,1.20
2017,09,30,01,14,0.60
2017,09,30,01,15,1.30
2017,09,30,01,16,0.20
2017,09,30,01,17,0.00
2017,09,30,01,18,0.00
2017,09,30,01,19,0.00
2017,09,30,01,20,0.00
2017,09,30,01,21,0.00
2017,09,30,01,22,0.00
2017,09,30,01,23,0.00
2017,09,30,01,24,0.00
2017,09,30,01,25,0.00
2017,09,30,01,26,0.00
2017,09,30,01,27,0.10
2017,09,30,01,28,0.00
2017,09,30,01,29,0.60
2017,09,30,01,30,2.20
2017,09,30,01,31,2.10
2017,09,30,01,32,0.40
2017,09,30,01,33,0.00
2017,09,30,01,34,0.00
2017,09,30,01,35,0.00
2017,09,30,01,36,0.00
2017,09,30,01,37,0.10
2017,09,30,01,38,0.60
2017,09,30,01,39,0.20
2017,09,30,01,40,0.00
2017,09,30,01,41,0.10
2017,09,30,01,42,0.00
2017,09,30,01,43,0.00
2017,09,30,01,44,0.00
2017,09,30,01,45,0.00
2017,09,30,01,46,0.00
2017,09,30,01,47,0.00
2017,09,30,01,48,0.00
2017,09,30,01,49,0.00
2017,09,30,01,50,0.00
2017,09,30,01,51,0.40
2017,09,30,01,52,1.10
2017,09,30,01,53,0.90
2017,09,30,01,54,0.60
2017,09,30,01,55,1.90
2017,09,30,01,56,2.70
2017,09,30,01,57,4.70
2017,09,30,01,58,4.00
2017,09,30,01,59,5.90
2017,09,30,02,00,4.70
2017,09,30,02,01,4.90
2017,09,30,02,02,5.70
2017,09,30,02,03,3.80
2017,09,30,02,04,2.80
2017,09,30,02,05,2.70
2017,09,30,02,06,4.60
2017,09,30,02,07,6.00
2017,09,30,02,08,5.60
2017,09,30,02,09,6.90
2017,09,30,02,10,10.80
2017,09,30,02,11,11.20
2017,09,30,02,12,10.00
2017,09,30,02,13,9.40
2017,09,30,02,14,7.90
2017,09,30,02,15,6.70
2017,09,30,02,16,8.00
2017,09,30,02,17,8.40
2017,09,30,02,18,8.10
2017,09,30,02,19,11.30
2017,09,30,02,20,8.30
2017,09,30,02,21,10.80
2017,09,30,02,22,8.30
2017,09,30,02,23,8.10
2017,09,30,02,24,6.40
2017,09,30,02,25,7.20
2017,09,30,02,26,6.10
2017,09,30,02,27,11.00
2017,09,30,02,28,10.00
2017,09,30,02,29,11.90
2017,09,30,02,30,8.90
2017,09,30,02,31,10.70
2017,09,30,02,32,8.40
2017,09,30,02,33,8.10
2017,09,30,02,34,9.20
2017,09,30,02,35,7.50
2017,09,30,02,36,6.20
2017,09,30,02,37,4.50
2017,09,30,02,38,3.40
2017,09,30,02,39,4.10
2017,09,30,02,40,5.60
2017,09,30,02,41,4.30
2017,09,30,02,42,6.90
2017,09,30,02,43,7.70
2017,09,30,02,44,8.10
2017,09,30,02,45,6.90
2017,09,30,02,46,6.70
2017,09,30,02,47,6.70
2017,09,30,02,48,7.90
2017,09,30,02,49,8.10
2017,09,30,02,50,7.10
2017,09,30,02,51,8.30
2017,09,30,02,52,12.70
2017,09,30,02,53,10.20
2017,09,30,02,54,10.90
2017,09,30,02,55,10.10
2017,09,30,02,56,4.90
2017,09,30,02,57,9.80
2017,09,30,02,58,9.90
2017,09,30,02,59,7.80
2017,09,30,03,00,7.70
2017,09,30,03,01,8.70
2017,09,30,03,02,7.80
2017,09,30,03,03,6.00
2017,09,30,03,04,5.40
2017,09,30,03,05,6.10
2017,09,30,03,06,11.30
2017,09,30,03,07,9.10
2017,09,30,03,08,8.40
2017,09,30,03,09,7.00
2017,09,30,03,10,10.00
2017,09,30,03,11,9.80
2017,09,30,03,12,8.30
2017,09,30,03,13,7.10
2017,09,30,03,14,4.40
2017,09,30,03,15,5.50
2017,09,30,03,16,6.30
2017,09,30,03,17,6.90
2017,09,30,03,18,7.50
2017,09,30,03,19,8.20
2017,09,30,03,20,7.90
2017,09,30,03,21,8.30
2017,09,30,03,22,4.40
2017,09,30,03,23,4.40
2017,09,30,03,24,6.40
2017,09,30,03,25,4.30
2017,09,30,03,26,4.00
2017,09,30,03,27,2.70
2017,09,30,03,28,1.90
2017,09,30,03,29,0.70
2017,09,30,03,30,1.70
2017,09,30,03,31,1.40
2017,09,30,03,32,2.20
2017,09,30,03,33,2.60
2017,09,30,03,34,2.00
2017,09,30,03,35,2.40
2017,09,30,03,36,3.80
2017,09,30,03,37,5.00
2017,09,30,03,38,6.30
2017,09,30,03,39,6.80
2017,09,30,03,40,5.90
2017,09,30,03,41,4.40
2017,09,30,03,42,5.60
2017,09,30,03,43,5.30
2017,09,30,03,44,6.70
2017,09,30,03,45,6.40
2017,09,30,03,46,8.60
2017,09,30,03,47,8.10
2017,09,30,03,48,8.10
2017,09,30,03,49,7.50
2017,09,30,03,50,5.60
2017,09,30,03,51,6.40
2017,09,30,03,52,7.20
2017,09,30,03,53,5.80
2017,09,30,03,54,5.20
2017,09,30,03,55,4.70
2017,09,30,03,56,5.10
2017,09,30,03,57,5.00
2017,09,30,03,58,4.90
2017,09,30,03,59,5.60
2017,09,30,04,00,5.00
2017,09,30,04,01,5.90
2017,09,30,04,02,4.80
2017,09,30,04,03,4.20
2017,09,30,04,04,5.00
2017,09,30,04,05,6.10
2017,09,30,04,06,6.50
2017,09,30,04,07,6.90
2017,09,30,04,08,8.90
2017,09,30,04,09,8.80
2017,09,30,04,10,8.30
2017,09,30,04,11,8.00
2017,09,30,04,12,5.90
2017,09,30,04,13,8.40
2017,09,30,04,14,4.90
2017,09,30,04,15,6.00
2017,09,30,04,16,7.60
2017,09,30,04,17,4.50
2017,09,30,04,18,7.70
2017,09,30,04,19,6.70
2017,09,30,04,20,7.20
2017,09,30,04,21,4.40
2017,09,30,04,22,4.30
2017,09,30,04,23,3.20
2017,09,30,04,24,2.80
2017,09,30,04,25,4.50
2017,09,30,04,26,3.40
2017,09,30,04,27,4.10
2017,09,30,04,28,3.00
2017,09,30,04,29,4.20
2017,09,30,04,30,3.90
2017,09,30,04,31,2.60
2017,09,30,04,32,2.90
2017,09,30,04,33,2.80
2017,09,30,04,34,3.60
2017,09,30,04,35,3.70
2017,09,30,04,36,3.60
2017,09,30,04,37,2.90
2017,09,30,04,38,3.40
2017,09,30,04,39,5.00
2017,09,30,04,40,4.40
2017,09,30,04,41,2.10
2017,09,30,04,42,2.20
2017,09,30,04,43,3.40
2017,09,30,04,44,3.10
2017,09,30,04,45,3.50
2017,09,30,04,46,4.40
2017,09,30,04,47,4.70
2017,09,30,04,48,5.50
2017,09,30,04,49,6.00
2017,09,30,04,50,5.00
2017,09,30,04,51,4.20
2017,09,30,04,52,3.20
2017,09,30,04,53,3.10
2017,09,30,04,54,2.30
2017,09,30,04,55,1.00
2017,09,30,04,56,1.70
2017,09,30,04,57,2.90
2017,09,30,04,58,2.10
2017,09,30,04,59,2.90
2017,09,30,05,00,1.70
2017,09,30,05,01,3.10
2017,09,30,05,02,2.10
2017,09,30,05,03,1.00
2017,09,30,05,04,2.30
2017,09,30,05,05,1.40
2017,09,30,05,06,1.80
2017,09,30,05,07,1.10
2017,09,30,05,08,1.10
2017,09,30,05,09,0.80
2017,09,30,05,10,1.60
2017,09,30,05,11,1.00
2017,09,30,05,12,2.30
2017,09,30,05,13,2.30
2017,09,30,05,14,0.40
2017,09,30,05,15,0.20
2017,09,30,05,16,0.10
2017,09,30,05,17,0.00
2017,09,30,05,18,0.40
2017,09,30,05,19,0.20
2017,09,30,05,20,1.20
2017,09,30,05,21,1.80
2017,09,30,05,22,3.40
2017,09,30,05,23,4.20
2017,09,30,05,24,4.20
2017,09,30,05,25,6.70
2017,09,30,05,26,5.40
2017,09,30,05,27,4.80
2017,09,30,05,28,4.60
2017,09,30,05,29,2.80
2017,09,30,05,30,2.80
2017,09,30,05,31,3.90
2017,09,30,05,32,4.40
2017,09,30,05,33,6.10
2017,09,30,05,34,3.40
2017,09,30,05,35,4.90
2017,09,30,05,36,6.10
2017,09,30,05,37,8.60
2017,09,30,05,38,8.00
2017,09,30,05,39,5.20
2017,09,30,05,40,5.10
2017,09,30,05,41,5.90
2017,09,30,05,42,3.60
2017,09,30,05,43,5.70
2017,09,30,05,44,6.70
2017,09,30,05,45,5.00
2017,09,30,05,46,2.20
2017,09,30,05,47,3.10
2017,09,30,05,48,5.20
2017,09,30,05,49,6.60
2017,09,30,05,50,4.30
2017,09,30,05,51,6.10
2017,09,30,05,52,6.00
2017,09,30,05,53,5.00
2017,09,30,05,54,5.60
2017,09,30,05,55,6.10
2017,09,30,05,56,6.90
2017,09,30,05,57,5.80
2017,09,30,05,58,3.10
2017,09,30,05,59,2.80
2017,09,30,06,00,7.30
2017,09,30,06,01,5.00
2017,09,30,06,02,4.40
2017,09,30,06,03,3.90
2017,09,30,06,04,3.80
2017,09,30,06,05,5.60
2017,09,30,06,06,5.70
2017,09,30,06,07,4.80
2017,09,30,06,08,6.20
2017,09,30,06,09,5.90
2017,09,30,06,10,5.30
2017,09,30,06,11,6.40
2017,09,30,06,12,4.40
2017,09,30,06,13,4.50
2017,09,30,06,14,5.30
2017,09,30,06,15,4.80
2017,09,30,06,16,2.70
2017,09,30,06,17,3.10
2017,09,30,06,18,3.80
2017,09,30,06,19,4.50
2017,09,30,06,20,5.60
2017,09,30,06,21,4.70
2017,09,30,06,22,5.00
2017,09,30,06,23,4.80
2017,09,30,06,24,5.30
2017,09,30,06,25,7.20
2017,09,30,06,26,7.40
2017,09,30,06,27,6.50
2017,09,30,06,28,5.70
2017,09,30,06,29,6.80
2017,09,30,06,30,5.90
2017,09,30,06,31,6.20
2017,09,30,06,32,5.70
2017,09,30,06,33,6.20
2017,09,30,06,34,6.30
2017,09,30,06,35,4.90
2017,09,30,06,36,5.70
2017,09,30,06,37,5.40
2017,09,30,06,38,5.30
2017,09,30,06,39,5.40
2017,09,30,06,40,4.50
2017,09,30,06,41,5.30
2017,09,30,06,42,4.30
2017,09,30,06,43,5.30
2017,09,30,06,44,3.80
2017,09,30,06,45,5.10
2017,09,30,06,46,7.00
2017,09,30,06,47,5.40
2017,09,30,06,48,5.30
2017,09,30,06,49,6.40
2017,09,30,06,50,5.50
2017,09,30,06,51,8.30
2017,09,30,06,52,8.00
2017,09,30,06,53,10.70
2017,09,30,06,54,7.10
2017,09,30,06,55,7.00
2017,09,30,06,56,8.50
2017,09,30,06,57,5.90
2017,09,30,06,58,3.60
2017,09,30,06,59,6.60
2017,09,30,07,00,7.00
2017,09,30,07,01,3.40
2017,09,30,07,02,4.50
2017,09,30,07,03,4.90
2017,09,30,07,04,3.50
2017,09,30,07,05,3.10
2017,09,30,07,06,2.40
2017,09,30,07,07,1.80
2017,09,30,07,08,1.10
2017,09,30,07,09,1.50
2017,09,30,07,10,1.60
2017,09,30,07,11,2.30
2017,09,30,07,12,2.50
2017,09,30,07,13,0.30
2017,09,30,07,14,0.40
2017,09,30,07,15,0.60
2017,09,30,07,16,0.00
2017,09,30,07,17,0.60
2017,09,30,07,18,0.00
2017,09,30,07,19,0.20
2017,09,30,07,20,0.20
2017,09,30,07,21,0.60
2017,09,30,07,22,0.10
2017,09,30,07,23,0.00
2017,09,30,07,24,0.00
2017,09,30,07,25,0.20
2017,09,30,07,26,0.00
2017,09,30,07,27,0.00
2017,09,30,07,28,0.00
2017,09,30,07,29,0.00
2017,09,30,07,30,0.00
2017,09,30,07,31,0.10
2017,09,30,07,32,0.40
2017,09,30,07,33,0.20
2017,09,30,07,34,0.00
2017,09,30,07,35,0.00
2017,09,30,07,36,0.00
2017,09,30,07,37,0.00
2017,09,30,07,38,0.00
2017,09,30,07,39,1.10
2017,09,30,07,40,0.40
2017,09,30,07,41,1.30
2017,09,30,07,42,3.10
2017,09,30,07,43,2.90
2017,09,30,07,44,2.40
2017,09,30,07,45,1.30
2017,09,30,07,46,0.00
2017,09,30,07,47,1.20
2017,09,30,07,48,5.60
2017,09,30,07,49,3.10
2017,09,30,07,50,1.20
2017,09,30,07,51,0.70
2017,09,30,07,52,3.10
2017,09,30,07,53,4.70
2017,09,30,07,54,3.60
2017,09,30,07,55,5.70
2017,09,30,07,56,4.10
2017,09,30,07,57,5.90
2017,09,30,07,58,6.70
2017,09,30,07,59,4.40
2017,09,30,08,00,4.50
2017,09,30,08,01,5.50
2017,09,30,08,02,3.80
2017,09,30,08,03,3.70
2017,09,30,08,04,3.30
2017,09,30,08,05,3.30
2017,09,30,08,06,2.90
2017,09,30,08,07,4.80
2017,09,30,08,08,4.00
2017,09,30,08,09,6.80
2017,09,30,08,10,6.00
2017,09,30,08,11,5.80
2017,09,30,08,12,6.00
2017,09,30,08,13,6.00
2017,09,30,08,14,3.70
2017,09,30,08,15,6.00
2017,09,30,08,16,7.70
2017,09,30,08,17,5.70
2017,09,30,08,18,7.70
2017,09,30,08,19,8.80
2017,09,30,08,20,6.90
2017,09,30,08,21,5.80
2017,09,30,08,22,4.90
2017,09,30,08,23,4.20
2017,09,30,08,24,4.50
2017,09,30,08,25,3.80
2017,09,30,08,26,5.90
2017,09,30,08,27,5.90
2017,09,30,08,28,10.40
2017,09,30,08,29,9.90
2017,09,30,08,30,8.40
2017,09,30,08,31,5.50
2017,09,30,08,32,7.20
2017,09,30,08,33,6.40
2017,09,30,08,34,8.10
2017,09,30,08,35,9.30
2017,09,30,08,36,10.90
2017,09,30,08,37,9.40
2017,09,30,08,38,7.20
2017,09,30,08,39,6.50
2017,09,30,08,40,7.20
2017,09,30,08,41,8.90
2017,09,30,08,42,8.60
2017,09,30,08,43,7.50
2017,09,30,08,44,7.90
2017,09,30,08,45,10.80
2017,09,30,08,46,11.40
2017,09,30,08,47,11.90
2017,09,30,08,48,11.50
2017,09,30,08,49,9.00
2017,09,30,08,50,9.00
2017,09,30,08,51,11.10
2017,09,30,08,52,6.20
2017,09,30,08,53,8.90
2017,09,30,08,54,8.50
2017,09,30,08,55,7.70
2017,09,30,08,56,10.50
2017,09,30,08,57,9.70
2017,09,30,08,58,9.20
2017,09,30,08,59,7.60
2017,09,30,09,00,8.70
2017,09,30,09,01,10.60
2017,09,30,09,02,10.80
2017,09,30,09,03,10.20
2017,09,30,09,04,10.90
2017,09,30,09,05,10.80
2017,09,30,09,06,11.60
2017,09,30,09,07,10.60
2017,09,30,09,08,13.90
2017,09,30,09,09,9.90
2017,09,30,09,10,10.80
2017,09,30,09,11,14.10
2017,09,30,09,12,11.00
2017,09,30,09,13,8.70
2017,09,30,09,14,8.90
2017,09,30,09,15,11.40
2017,09,30,09,16,11.90
2017,09,30,09,17,11.00
2017,09,30,09,18,9.70
2017,09,30,09,19,8.00
2017,09,30,09,20,8.80
2017,09,30,09,21,11.90
2017,09,30,09,22,11.20
2017,09,30,09,23,11.60
2017,09,30,09,24,11.10
2017,09,30,09,25,6.90
2017,09,30,09,26,12.80
2017,09,30,09,27,14.80
2017,09,30,09,28,12.70
2017,09,30,09,29,11.70
2017,09,30,09,30,9.50
2017,09,30,09,31,11.10
2017,09,30,09,32,11.90
2017,09,30,09,33,11.10
2017,09,30,09,34,12.90
2017,09,30,09,35,9.10
2017,09,30,09,36,12.60
2017,09,30,09,37,13.70
2017,09,30,09,38,9.50
2017,09,30,09,39,6.40
2017,09,30,09,40,10.90
2017,09,30,09,41,10.90
2017,09,30,09,42,8.20
2017,09,30,09,43,7.60
2017,09,30,09,44,5.50
2017,09,30,09,45,8.30
2017,09,30,09,46,7.40
2017,09,30,09,47,8.10
2017,09,30,09,48,5.00
2017,09,30,09,49,7.70
2017,09,30,09,50,9.20
2017,09,30,09,51,7.20
2017,09,30,09,52,4.60
2017,09,30,09,53,6.30
2017,09,30,09,54,9.50
2017,09,30,09,55,9.20
2017,09,30,09,56,9.10
2017,09,30,09,57,9.30
2017,09,30,09,58,7.90
2017,09,30,09,59,9.60
2017,09,30,10,00,8.90
2017,09,30,10,01,8.20
2017,09,30,10,02,6.40
2017,09,30,10,03,4.50
2017,09,30,10,04,9.10
2017,09,30,10,05,6.70
2017,09,30,10,06,9.30
2017,09,30,10,07,10.20
2017,09,30,10,08,10.10
2017,09,30,10,09,12.80
2017,09,30,10,10,11.60
2017,09,30,10,11,10.00
2017,09,30,10,12,10.50
2017,09,30,10,13,8.50
2017,09,30,10,14,5.00
2017,09,30,10,15,8.20
2017,09,30,10,16,12.80
2017,09,30,10,17,11.20
2017,09,30,10,18,11.90
2017,09,30,10,19,9.60
2017,09,30,10,20,7.50
2017,09,30,10,21,7.80
2017,09,30,10,22,6.60
2017,09,30,10,23,6.10
2017,09,30,10,24,9.90
2017,09,30,10,25,6.70
2017,09,30,10,26,10.20
2017,09,30,10,27,13.20
2017,09,30,10,28,7.20
2017,09,30,10,29,7.40
2017,09,30,10,30,5.30
2017,09,30,10,31,4.60
2017,09,30,10,32,9.80
2017,09,30,10,33,8.40
2017,09,30,10,34,7.20
2017,09,30,10,35,5.60
2017,09,30,10,36,8.70
2017,09,30,10,37,7.90
2017,09,30,10,38,9.80
2017,09,30,10,39,6.10
2017,09,30,10,40,7.20
2017,09,30,10,41,6.20
2017,09,30,10,42,9.00
2017,09,30,10,43,6.10
2017,09,30,10,44,5.60
2017,09,30,10,45,6.10
2017,09,30,10,46,5.40
2017,09,30,10,47,6.60
2017,09,30,10,48,6.10
2017,09,30,10,49,5.00
2017,09,30,10,50,9.10
2017,09,30,10,51,7.50
2017,09,30,10,52,5.60
2017,09,30,10,53,7.70
2017,09,30,10,54,6.70
2017,09,30,10,55,7.10
2017,09,30,10,56,6.60
2017,09,30,10,57,5.60
2017,09,30,10,58,7.00
2017,09,30,10,59,7.70
2017,09,30,11,00,5.70
2017,09,30,11,01,6.00
2017,09,30,11,02,7.40
2017,09,30,11,03,9.80
2017,09,30,11,04,11.30
2017,09,30,11,05,9.60
2017,09,30,11,06,5.90
2017,09,30,11,07,9.10
2017,09,30,11,08,9.60
2017,09,30,11,09,6.70
2017,09,30,11,10,8.30
2017,09,30,11,11,10.00
2017,09,30,11,12,9.90
2017,09,30,11,13,6.40
2017,09,30,11,14,8.40
2017,09,30,11,15,9.30
2017,09,30,11,16,10.00
2017,09,30,11,17,8.30
2017,09,30,11,18,6.90
2017,09,30,11,19,8.40
2017,09,30,11,20,4.00
2017,09,30,11,21,3.40
2017,09,30,11,22,4.50
2017,09,30,11,23,2.60
2017,09,30,11,24,5.50
2017,09,30,11,25,7.80
2017,09,30,11,26,8.60
2017,09,30,11,27,9.90
2017,09,30,11,28,8.90
2017,09,30,11,29,7.40
2017,09,30,11,30,8.70
2017,09,30,11,31,9.70
2017,09,30,11,32,12.90
2017,09,30,11,33,12.70
2017,09,30,11,34,6.40
2017,09,30,11,35,7.10
2017,09,30,11,36,9.60
2017,09,30,11,37,7.80
2017,09,30,11,38,7.00
2017,09,30,11,39,9.50
2017,09,30,11,40,6.90
2017,09,30,11,41,8.80
2017,09,30,11,42,11.30
2017,09,30,11,43,6.70
2017,09,30,11,44,5.40
2017,09,30,11,45,7.80
2017,09,30,11,46,11.30
2017,09,30,11,47,11.10
2017,09,30,11,48,9.40
2017,09,30,11,49,10.10
2017,09,30,11,50,8.50
2017,09,30,11,51,4.90
2017,09,30,11,52,7.20
2017,09,30,11,53,6.40
2017,09,30,11,54,8.60
2017,09,30,11,55,12.70
2017,09,30,11,56,7.70
2017,09,30,11,57,10.30
2017,09,30,11,58,10.20
2017,09,30,11,59,9.00
2017,09,30,12,00,8.30
2017,09,30,12,01,6.10
2017,09,30,12,02,3.40
2017,09,30,12,03,3.70
2017,09,30,12,04,3.70
2017,09,30,12,05,3.60
2017,09,30,12,06,4.20
2017,09,30,12,07,6.00
2017,09,30,12,08,8.00
2017,09,30,12,09,8.60
2017,09,30,12,10,11.20
2017,09,30,12,11,7.00
2017,09,30,12,12,3.90
2017,09,30,12,13,7.00
2017,09,30,12,14,4.10
2017,09,30,12,15,2.70
2017,09,30,12,16,4.00
2017,09,30,12,17,4.80
2017,09,30,12,18,6.80
2017,09,30,12,19,6.70
2017,09,30,12,20,4.30
2017,09,30,12,21,4.20
2017,09,30,12,22,6.70
2017,09,30,12,23,9.30
2017,09,30,12,24,7.10
2017,09,30,12,25,9.40
2017,09,30,12,26,7.60
2017,09,30,12,27,8.10
2017,09,30,12,28,7.80
2017,09,30,12,29,10.40
2017,09,30,12,30,10.00
2017,09,30,12,31,8.40
2017,09,30,12,32,6.10
2017,09,30,12,33,7.30
2017,09,30,12,34,6.70
2017,09,30,12,35,9.70
2017,09,30,12,36,9.60
2017,09,30,12,37,9.40
2017,09,30,12,38,7.50
2017,09,30,12,39,10.30
2017,09,30,12,40,8.90
2017,09,30,12,41,7.70
2017,09,30,12,42,9.10
2017,09,30,12,43,9.40
2017,09,30,12,44,11.00
2017,09,30,12,45,11.40
2017,09,30,12,46,10.20
2017,09,30,12,47,10.90
2017,09,30,12,48,8.70
2017,09,30,12,49,11.60
2017,09,30,12,50,13.00
2017,09,30,12,51,10.20
2017,09,30,12,52,11.80
2017,09,30,12,53,15.50
2017,09,30,12,54,8.30
2017,09,30,12,55,8.10
2017,09,30,12,56,8.90
2017,09,30,12,57,10.60
2017,09,30,12,58,10.10
2017,09,30,12,59,20.20
2017,09,30,13,00,25.80
2017,09,30,13,01,27.80
2017,09,30,13,02,18.40
2017,09,30,13,03,21.40
2017,09,30,13,04,14.80
2017,09,30,13,05,14.00
2017,09,30,13,06,12.50
2017,09,30,13,07,13.50
2017,09,30,13,08,9.80
2017,09,30,13,09,8.80
2017,09,30,13,10,13.30
2017,09,30,13,11,12.00
2017,09,30,13,12,11.60
2017,09,30,13,13,10.20
2017,09,30,13,14,11.00
2017,09,30,13,15,9.00
2017,09,30,13,16,12.10
2017,09,30,13,17,9.00
2017,09,30,13,18,12.50
2017,09,30,13,19,7.30
2017,09,30,13,20,5.50
2017,09,30,13,21,6.80
2017,09,30,13,22,9.20
2017,09,30,13,23,6.70
2017,09,30,13,24,6.30
2017,09,30,13,25,6.20
2017,09,30,13,26,10.50
2017,09,30,13,27,15.70
2017,09,30,13,28,11.50
2017,09,30,13,29,7.70
2017,09,30,13,30,11.30
2017,09,30,13,31,10.70
2017,09,30,13,32,8.70
2017,09,30,13,33,9.40
2017,09,30,13,34,7.60
2017,09,30,13,35,8.60
2017,09,30,13,36,8.20
2017,09,30,13,37,10.60
2017,09,30,13,38,13.10
2017,09,30,13,39,12.30
2017,09,30,13,40,13.40
2017,09,30,13,41,6.70
2017,09,30,13,42,10.40
2017,09,30,13,43,13.30
2017,09,30,13,44,13.60
2017,09,30,13,45,15.20
2017,09,30,13,46,15.70
2017,09,30,13,47,14.30
2017,09,30,13,48,12.00
2017,09,30,13,49,11.60
2017,09,30,13,50,9.10
2017,09,30,13,51,11.10
2017,09,30,13,52,9.20
2017,09,30,13,53,6.70
2017,09,30,13,54,11.20
2017,09,30,13,55,13.80
2017,09,30,13,56,12.10
2017,09,30,13,57,16.70
2017,09,30,13,58,13.50
2017,09,30,13,59,13.20
2017,09,30,14,00,9.50
2017,09,30,14,01,8.80
2017,09,30,14,02,12.20
2017,09,30,14,03,11.00
2017,09,30,14,04,12.00
2017,09,30,14,05,13.00
2017,09,30,14,06,9.40
2017,09,30,14,07,10.50
2017,09,30,14,08,9.10
2017,09,30,14,09,7.70
2017,09,30,14,10,7.20
2017,09,30,14,11,8.70
2017,09,30,14,12,7.30
2017,09,30,14,13,10.70
2017,09,30,14,14,10.50
2017,09,30,14,15,9.90
2017,09,30,14,16,11.10
2017,09,30,14,17,10.70
2017,09,30,14,18,8.20
2017,09,30,14,19,7.70
2017,09,30,14,20,6.10
2017,09,30,14,21,7.70
2017,09,30,14,22,8.70
2017,09,30,14,23,13.90
2017,09,30,14,24,11.70
2017,09,30,14,25,9.10
2017,09,30,14,26,10.60
2017,09,30,14,27,5.70
2017,09,30,14,28,4.60
2017,09,30,14,29,6.10
2017,09,30,14,30,10.50
2017,09,30,14,31,13.20
2017,09,30,14,32,10.10
2017,09,30,14,33,8.90
2017,09,30,14,34,13.00
2017,09,30,14,35,9.80
2017,09,30,14,36,16.60
2017,09,30,14,37,11.90
2017,09,30,14,38,8.00
2017,09,30,14,39,13.10
2017,09,30,14,40,11.60
2017,09,30,14,41,13.80
2017,09,30,14,42,10.00
2017,09,30,14,43,12.60
2017,09,30,14,44,18.10
2017,09,30,14,45,16.30
2017,09,30,14,46,14.00
2017,09,30,14,47,14.60
2017,09,30,14,48,13.60
2017,09,30,14,49,14.00
2017,09,30,14,50,13.20
2017,09,30,14,51,9.90
2017,09,30,14,52,11.30
2017,09,30,14,53,10.70
2017,09,30,14,54,11.20
2017,09,30,14,55,8.70
2017,09,30,14,56,15.30
2017,09,30,14,57,12.40
2017,09,30,14,58,12.10
2017,09,30,14,59,10.80
2017,09,30,15,00,13.80
2017,09,30,15,01,11.90
2017,09,30,15,02,12.30
2017,09,30,15,03,11.30
2017,09,30,15,04,5.90
2017,09,30,15,05,10.80
2017,09,30,15,06,10.10
2017,09,30,15,07,12.30
2017,09,30,15,08,10.50
2017,09,30,15,09,8.80
2017,09,30,15,10,12.00
2017,09,30,15,11,8.60
2017,09,30,15,12,15.20
2017,09,30,15,13,12.20
2017,09,30,15,14,13.40
2017,09,30,15,15,11.00
2017,09,30,15,16,12.80
2017,09,30,15,17,9.10
2017,09,30,15,18,9.80
2017,09,30,15,19,11.00
2017,09,30,15,20,10.80
2017,09,30,15,21,7.50
2017,09,30,15,22,12.80
2017,09,30,15,23,9.90
2017,09,30,15,24,10.40
2017,09,30,15,25,13.60
2017,09,30,15,26,17.60
2017,09,30,15,27,10.20
2017,09,30,15,28,7.10
2017,09,30,15,29,12.60
2017,09,30,15,30,13.10
2017,09,30,15,31,10.30
2017,09,30,15,32,13.50
2017,09,30,15,33,13.20
2017,09,30,15,34,15.40
2017,09,30,15,35,13.70
2017,09,30,15,36,8.90
2017,09,30,15,37,10.20
2017,09,30,15,38,13.00
2017,09,30,15,39,14.30
2017,09,30,15,40,13.60
2017,09,30,15,41,14.20
2017,09,30,15,42,12.50
2017,09,30,15,43,15.10
2017,09,30,15,44,14.00
2017,09,30,15,45,15.50
2017,09,30,15,46,12.30
2017,09,30,15,47,11.90
2017,09,30,15,48,14.30
2017,09,30,15,49,16.50
2017,09,30,15,50,18.40
2017,09,30,15,51,12.40
2017,09,30,15,52,12.80
2017,09,30,15,53,15.70
2017,09,30,15,54,8.80
2017,09,30,15,55,19.20
2017,09,30,15,56,18.90
2017,09,30,15,57,15.00
2017,09,30,15,58,14.00
2017,09,30,15,59,14.20
2017,09,30,16,00,13.80
2017,09,30,16,01,14.00
2017,09,30,16,02,15.90
2017,09,30,16,03,16.00
2017,09,30,16,04,13.60
2017,09,30,16,05,13.80
2017,09,30,16,06,15.40
2017,09,30,16,07,12.60
2017,09,30,16,08,18.40
2017,09,30,16,09,12.90
2017,09,30,16,10,17.20
2017,09,30,16,11,16.50
2017,09,30,16,12,11.40
2017,09,30,16,13,14.60
2017,09,30,16,14,16.20
2017,09,30,16,15,15.70
2017,09,30,16,16,12.70
2017,09,30,16,17,13.70
2017,09,30,16,18,13.30
2017,09,30,16,19,13.70
2017,09,30,16,20,14.80
2017,09,30,16,21,14.80
2017,09,30,16,22,12.70
2017,09,30,16,23,17.50
2017,09,30,16,24,14.00
2017,09,30,16,25,12.20
2017,09,30,16,26,11.40
2017,09,30,16,27,14.50
2017,09,30,16,28,13.50
2017,09,30,16,29,11.50
2017,09,30,16,30,11.20
2017,09,30,16,31,11.60
2017,09,30,16,32,10.50
2017,09,30,16,33,11.00
2017,09,30,16,34,8.50
2017,09,30,16,35,8.30
2017,09,30,16,36,7.40
2017,09,30,16,37,5.80
2017,09,30,16,38,8.60
2017,09,30,16,39,8.90
2017,09,30,16,40,11.90
2017,09,30,16,41,12.70
2017,09,30,16,42,10.20
2017,09,30,16,43,13.20
2017,09,30,16,44,16.40
2017,09,30,16,45,8.10
2017,09,30,16,46,9.30
2017,09,30,16,47,13.80
2017,09,30,16,48,15.30
2017,09,30,16,49,12.60
2017,09,30,16,50,8.10
2017,09,30,16,51,15.10
2017,09,30,16,52,12.60
2017,09,30,16,53,10.40
2017,09,30,16,54,8.60
2017,09,30,16,55,8.70
2017,09,30,16,56,8.80
2017,09,30,16,57,9.00
2017,09,30,16,58,11.90
2017,09,30,16,59,10.20
2017,09,30,17,00,13.50
2017,09,30,17,01,15.30
2017,09,30,17,02,13.30
2017,09,30,17,03,12.20
2017,09,30,17,04,12.60
2017,09,30,17,05,11.90
2017,09,30,17,06,10.50
2017,09,30,17,07,8.70
2017,09,30,17,08,8.00
2017,09,30,17,09,10.00
2017,09,30,17,10,14.10
2017,09,30,17,11,12.20
2017,09,30,17,12,8.00
2017,09,30,17,13,6.30
2017,09,30,17,14,10.20
2017,09,30,17,15,10.80
2017,09,30,17,16,7.10
2017,09,30,17,17,6.40
2017,09,30,17,18,7.40
2017,09,30,17,19,10.90
2017,09,30,17,20,10.00
2017,09,30,17,21,4.90
2017,09,30,17,22,6.70
2017,09,30,17,23,10.70
2017,09,30,17,24,10.10
2017,09,30,17,25,10.20
2017,09,30,17,26,10.10
2017,09,30,17,27,12.10
2017,09,30,17,28,15.90
2017,09,30,17,29,15.60
2017,09,30,17,30,10.70
2017,09,30,17,31,12.40
2017,09,30,17,32,9.50
2017,09,30,17,33,12.00
2017,09,30,17,34,10.10
2017,09,30,17,35,15.40
2017,09,30,17,36,12.00
2017,09,30,17,37,10.50
2017,09,30,17,38,7.90
2017,09,30,17,39,12.20
2017,09,30,17,40,10.70
2017,09,30,17,41,11.90
2017,09,30,17,42,15.50
2017,09,30,17,43,11.60
2017,09,30,17,44,10.50
2017,09,30,17,45,10.10
2017,09,30,17,46,15.90
2017,09,30,17,47,9.00
2017,09,30,17,48,10.50
2017,09,30,17,49,10.50
2017,09,30,17,50,10.80
2017,09,30,17,51,12.80
2017,09,30,17,52,10.40